Rayong, Thailand

5:15 AM +07 on May 01, 2017 (GMT +0700)
U-Taphao International

Weather History for VTBU - September, 2013

Change the Weather History Date:

Thursday, September 12, 2013

  Actual Average Record
Temperature  
Mean Temperature 80 °F -  
Max Temperature 84 °F 88 °F 93 °F (2007)
Min Temperature 77 °F 76 °F 33 °F (2007)
Cooling Degree Days 16    
Growing Degree Days 30 (Base 50)    
Moisture  
Dew Point 76 °F    
Average Humidity 81    
Maximum Humidity 89    
Minimum Humidity 74    
Precipitation  
Precipitation 0.00 in - - ()
Sea Level Pressure  
Sea Level Pressure 29.75 in    
Wind  
Wind Speed 3 mph ()    
Max Wind Speed 9 mph    
Max Gust Speed -    
Visibility 5.2 miles    
Events Rain    
Averages and records for this station are not official NWS values.
T = Trace of Precipitation, MM = Missing Value Source: Averaged Metar Reports

Daily Weather History Graph

Daily Weather History Graph

Search for Another Location

Airport or City:

Trip Planner

Search our weather history database for the weather conditions in past years. The results will help you decide how hot, cold, wet, or windy it might be!

Date:

Astronomy

Sep. 12, 2013 Rise Set
Actual Time 6:03 AM +07 6:17 PM +07
Civil Twilight 5:42 AM +07 6:39 PM +07
Nautical Twilight 5:17 AM +07 7:03 PM +07
Astronomical Twilight 4:52 AM +07 7:28 PM +07
Moon 11:55 AM +07 (9/12) 11:45 PM +07 (9/12)
Length of Visible Light 12h 56m
Length of Day
12h 14m
Waxing Crescent, 44% of the Moon is Illuminated
Sep 12
Waxing Crescent
Sep 13
First Quarter
Sep 19
Full
Sep 27
Last Quarter
Oct 5
New

Hourly Weather History & Observations

Time (+07) Temp. Heat Index Dew Point Humidity Pressure Visibility Wind Dir Wind Speed Gust Speed Precip Events Conditions
12:00 AM 84.2 °F 92.3 °F 75.2 °F 74% 29.74 in 5.6 mi SW 4.6 mph - N/A   Mostly Cloudy
12:30 AM 82.4 °F 90.9 °F 77.0 °F 84% 29.74 in 5.6 mi Calm Calm - N/A   Mostly Cloudy
3:30 AM 80.6 °F 86.2 °F 75.2 °F 84% 29.71 in 5.6 mi Calm Calm - N/A   Mostly Cloudy
4:00 AM 80.6 °F 86.2 °F 75.2 °F 84% 29.71 in 5.6 mi ENE 3.5 mph - N/A   Mostly Cloudy
4:30 AM 80.6 °F 86.2 °F 75.2 °F 84% 29.71 in 5.6 mi ENE 3.5 mph - N/A   Mostly Cloudy
5:00 AM 78.8 °F - 75.2 °F 89% 29.71 in 5.0 mi ENE 3.5 mph - N/A   Mostly Cloudy
5:30 AM 78.8 °F - 75.2 °F 89% 29.71 in 5.0 mi North 2.3 mph - N/A   Mostly Cloudy
6:00 AM 77.0 °F - 73.4 °F 89% 29.74 in 1.9 mi West 9.2 mph - N/A Rain Light Rain Showers
6:30 AM 78.8 °F - 75.2 °F 89% 29.74 in 3.1 mi South 4.6 mph - N/A Rain Light Rain
7:00 AM 78.8 °F - 75.2 °F 89% 29.74 in 3.1 mi SSE 3.5 mph - N/A Rain Light Rain
7:30 AM 78.8 °F - 75.2 °F 89% 29.74 in 3.1 mi Calm Calm - N/A Rain Light Rain
8:00 AM 78.8 °F - 75.2 °F 89% 29.77 in 4.3 mi Calm Calm - N/A Rain Light Rain
8:30 AM 82.4 °F 90.9 °F 77.0 °F 84% 29.77 in 5.0 mi Calm Calm - N/A   Mostly Cloudy
9:00 AM 82.4 °F 89.5 °F 75.2 °F 79% 29.77 in 5.6 mi SE 3.5 mph - N/A   Mostly Cloudy
9:30 AM 84.2 °F 94.1 °F 77.0 °F 79% 29.77 in 5.6 mi ESE 3.5 mph - N/A   Mostly Cloudy
10:00 AM 80.6 °F 86.2 °F 75.2 °F 84% 29.77 in 3.7 mi South 4.6 mph - N/A   Mostly Cloudy
10:30 AM 82.4 °F 89.5 °F 75.2 °F 79% 29.77 in 3.7 mi SE 3.5 mph - N/A   Mostly Cloudy
11:00 AM 80.6 °F 86.2 °F 75.2 °F 84% 29.77 in 3.7 mi SE 4.6 mph - N/A Rain Light Rain
11:30 AM 82.4 °F 90.9 °F 77.0 °F 84% 29.77 in 5.0 mi East 4.6 mph - N/A   Mostly Cloudy
12:00 PM 82.4 °F 90.9 °F 77.0 °F 84% 29.77 in 5.6 mi SE 4.6 mph - N/A   Mostly Cloudy
12:30 PM 84.2 °F 94.1 °F 77.0 °F 79% 29.74 in 5.6 mi ESE 4.6 mph - N/A   Mostly Cloudy
1:00 PM 84.2 °F 94.1 °F 77.0 °F 79% 29.71 in 5.6 mi South 4.6 mph - N/A Rain Light Rain Showers
1:30 PM 84.2 °F 94.1 °F 77.0 °F 79% 29.71 in 6.2 mi South 4.6 mph - N/A   Mostly Cloudy
2:00 PM 84.2 °F 92.3 °F 75.2 °F 74% 29.71 in 6.2 mi SW 4.6 mph - N/A   Mostly Cloudy
2:30 PM 84.2 °F 92.3 °F 75.2 °F 74% 29.71 in 6.2 mi WSW 4.6 mph - N/A   Mostly Cloudy
3:00 PM 84.2 °F 94.1 °F 77.0 °F 79% 29.71 in 6.2 mi WNW 2.3 mph - N/A   Mostly Cloudy
3:30 PM 84.2 °F 94.1 °F 77.0 °F 79% 29.68 in 6.2 mi NNE 2.3 mph - N/A   Mostly Cloudy
4:00 PM 84.2 °F 94.1 °F 77.0 °F 79% 29.68 in 6.2 mi NE 2.3 mph - N/A   Mostly Cloudy
4:30 PM 84.2 °F 94.1 °F 77.0 °F 79% 29.68 in 6.2 mi ENE 2.3 mph - N/A   Mostly Cloudy
5:00 PM 84.2 °F 92.3 °F 75.2 °F 74% 29.68 in 6.2 mi ESE 2.3 mph - N/A   Mostly Cloudy
5:30 PM 84.2 °F 94.1 °F 77.0 °F 79% 29.71 in 6.2 mi SSE 2.3 mph - N/A   Mostly Cloudy
6:00 PM 84.2 °F 92.3 °F 75.2 °F 74% 29.71 in 6.2 mi SSW 2.3 mph - N/A   Mostly Cloudy
6:30 PM 84.2 °F 94.1 °F 77.0 °F 79% 29.74 in 6.2 mi SSW 2.3 mph - N/A   Mostly Cloudy
7:00 PM 84.2 °F 92.3 °F 75.2 °F 74% 29.77 in 5.6 mi SSW 2.3 mph - N/A   Mostly Cloudy
7:30 PM 82.4 °F 90.9 °F 77.0 °F 84% 29.74 in 5.6 mi SW 2.3 mph - N/A   Mostly Cloudy
8:00 PM 84.2 °F 92.3 °F 75.2 °F 74% 29.77 in 5.6 mi SW 4.6 mph - N/A   Mostly Cloudy
8:30 PM 84.2 °F 94.1 °F 77.0 °F 79% 29.80 in 5.6 mi SW 6.9 mph - N/A   Mostly Cloudy
9:00 PM 84.2 °F 92.3 °F 75.2 °F 74% 29.80 in 5.0 mi SW 9.2 mph - N/A   Mostly Cloudy
9:30 PM 84.2 °F 94.1 °F 77.0 °F 79% 29.80 in 5.0 mi SW 9.2 mph - N/A   Mostly Cloudy
10:00 PM 84.2 °F 92.3 °F 75.2 °F 74% 29.80 in 5.0 mi SSW 6.9 mph - N/A   Mostly Cloudy
10:30 PM 84.2 °F 94.1 °F 77.0 °F 79% 29.83 in 5.0 mi SSW 9.2 mph - N/A   Mostly Cloudy
11:00 PM 84.2 °F 92.3 °F 75.2 °F 74% 29.83 in 5.0 mi South 9.2 mph - N/A   Mostly Cloudy
11:30 PM 84.2 °F 94.1 °F 77.0 °F 79% 29.83 in 5.0 mi South 9.2 mph - N/A   Mostly Cloudy